002  
ASUS46 KPQR 260410  
RWROR  
 
OREGON REGIONAL WEATHER ROUNDUP  
NATIONAL WEATHER SERVICE PORTLAND OR  
900 PM PDT FRI MAY 25 2018  
 
NOTE: "FAIR" INDICATES FEW OR NO CLOUDS BELOW 12,000 FEET WITH  
NO SIGNIFICANT WEATHER AND/OR S TO VISIBILITY
.  
 
ORZ001>013-260500-  
NORTHWEST OREGON  
 
 
CITY SKY/WX TMP DP RH WIND PRES REMARKS
 
ASTORIA CLOUDY 55 47 74 NW9 30.11R  
TILLAMOOK CLEAR 52 43 71 W6 30.14R  
NEWPORT PTCLDY 50 46 87 CALM 30.16F  
PORTLAND MOCLDY 61 42 49 NW12G21 30.05R  
VANCOUVER WA MOCLDY 59 43 55 NW10 30.05R  
SCAPPOOSE CLEAR 56 41 57 NW7 30.05R  
HILLSBORO CLOUDY 55 42 61 NW18G25 30.06R  
AURORA CLOUDY 60 39 45 NW7 30.06R  
MCMINNVILLE MOCLDY 54 45 71 CALM 30.05R  
SALEM MOCLDY 56 42 59 W12 30.06R  
CORVALLIS PTCLDY 53 42 66 W16G22 30.09R  
EUGENE MOCLDY 56 43 61 W10 30.08R  

 
 
ORZ021-028-260500-  
SOUTHWEST OREGON  
 
 
CITY SKY/WX TMP DP RH WIND PRES REMARKS
 
NORTH BEND CLOUDY 54 47 77 NW7 30.18R  
BROOKINGS CLOUDY 54 47 77 NW7 30.12R  
ROSEBURG CLOUDY 55 45 68 CALM 30.11S  
SEXTON SUMMIT FOG 42 42 100 N6 30.07F VSB 1/2  
GRANTS PASS CLOUDY 54 46 76 N9 30.11S  
MEDFORD CLOUDY 56 51 84 W8 30.06R  

 
 
ORZ014>016-041-260500-  
COLUMBIA GORGE  
 
 
CITY SKY/WX TMP DP RH WIND PRES REMARKS
 
TROUTDALE MOCLDY 61 41 47 NW9 30.04R  
HOOD RIVER MOCLDY 63 46 55 W6G18 29.96R  
THE DALLES CLOUDY 69 46 43 W17 29.88S  

 
 
ORZ029>031-041-044-049-050-061>064-502-503-505>511-260500-  
EASTERN OREGON  
 
 
CITY SKY/WX TMP DP RH WIND PRES REMARKS
 
MADRAS CLOUDY 55 43 62 NW15 29.98R  
REDMOND CLOUDY 56 45 66 NW10 29.97R  
BEND CLOUDY 54 46 76 NW8G15 29.97S  
PRINEVILLE CLOUDY 55 43 62 NW8 29.97R  
KLAMATH FALLS CLOUDY 51 48 89 W10 30.00R  
LAKEVIEW LGT RAIN 46 45 96 S8 30.02S  
HERMISTON CLOUDY 69 50 50 SW18G29 29.81R  
PENDLETON LGT RAIN 65 52 62 SW18 29.84R  
JOHN DAY CLOUDY 53 51 94 CALM 29.96F  
MEACHAM CLOUDY 60 47 61 MISG 29.92R  
LA GRANDE CLOUDY 62 49 62 W17G26 29.86R  
BAKER CITY LGT RAIN 57 51 80 CALM 29.89R  
BURNS NOT AVBL  
ROME N/A 57 52 83 S7 29.93R  
ONTARIO CLOUDY 63 53 70 SW10G18 29.80R  

 
 
 
CLICK HERE TO GO TO PREVIOUS BULLETINS.

The Nexlab OR Page Main Text Page